| time (UTC) | temp C | wind direction | speed KPH | gust KPH | rain 1hr cm | rain 24hr cm | rain mn cm | humidity % | barometer mb |
| 20260506215607 | 13 | 281 | 0.0 | 0.0 | 0.00 | 0.00 | 0.36 | 86 | 1011.2 |
| 20260506214607 | 13 | 195 | 0.0 | 1.6 | 0.00 | 0.00 | 0.36 | 91 | 1011.2 |
| 20260506213607 | 13 | 213 | 1.6 | 1.6 | 0.00 | 0.00 | 0.36 | 90 | 1011.5 |
| 20260506212605 | 13 | 217 | 1.6 | 1.6 | 0.00 | 0.00 | 0.36 | 89 | 1011.5 |
| 20260506211604 | 13 | 217 | 1.6 | 3.2 | 0.00 | 0.00 | 0.36 | 88 | 1011.5 |
| 20260506210604 | 13 | 204 | 0.0 | 0.0 | 0.00 | 0.00 | 0.36 | 88 | 1011.2 |
| 20260506205604 | 13 | 234 | 0.0 | 0.0 | 0.00 | 0.00 | 0.36 | 87 | 1011.5 |
| 20260506204604 | 13 | 207 | 1.6 | 3.2 | 0.00 | 0.00 | 0.36 | 85 | 1011.5 |
| 20260506203604 | 13 | 329 | 1.6 | 4.8 | 0.00 | 0.00 | 0.36 | 87 | 1011.5 |
| 20260506201608 | 13 | 240 | 0.0 | 0.0 | 0.00 | 0.00 | 0.36 | 89 | 1011.2 |
| 20260506200604 | 13 | 214 | 0.0 | 0.0 | 0.00 | 0.00 | 0.36 | 89 | 1011.2 |
| 20260506195604 | 14 | 230 | 1.6 | 1.6 | 0.00 | 0.00 | 0.36 | 87 | 1011.2 |
| 20260506194604 | 14 | 197 | 1.6 | 1.6 | 0.00 | 0.00 | 0.36 | 86 | 1010.8 |
| 20260506193604 | 14 | 182 | 1.6 | 3.2 | 0.00 | 0.00 | 0.36 | 86 | 1010.8 |
| 20260506192604 | 14 | 176 | 1.6 | 1.6 | 0.00 | 0.00 | 0.36 | 85 | 1010.5 |
| 20260506191604 | 14 | 190 | 0.0 | 1.6 | 0.00 | 0.00 | 0.36 | 84 | 1010.5 |
| 20260506190604 | 14 | 203 | 1.6 | 3.2 | 0.00 | 0.00 | 0.36 | 84 | 1010.2 |
| 20260506185604 | 14 | 220 | 1.6 | 1.6 | 0.00 | 0.00 | 0.36 | 84 | 1010.2 |
| 20260506184604 | 14 | 207 | 1.6 | 1.6 | 0.00 | 0.00 | 0.36 | 83 | 1010.2 |
| 20260506183604 | 15 | 180 | 1.6 | 3.2 | 0.00 | 0.00 | 0.36 | 82 | 1009.8 |
| 20260506182604 | 15 | 193 | 0.0 | 0.0 | 0.00 | 0.00 | 0.36 | 82 | 1009.8 |
| 20260506181604 | 15 | 202 | 1.6 | 3.2 | 0.00 | 0.00 | 0.36 | 79 | 1009.8 |
| 20260506180604 | 15 | 249 | 0.0 | 1.6 | 0.00 | 0.00 | 0.36 | 79 | 1009.8 |
| 20260506174604 | 15 | 217 | 0.0 | 0.0 | 0.00 | 0.00 | 0.36 | 80 | 1009.8 |
| 20260506173606 | 15 | 221 | 0.0 | 1.6 | 0.00 | 0.00 | 0.36 | 77 | 1009.5 |
| 20260506172604 | 16 | 203 | 1.6 | 1.6 | 0.00 | 0.00 | 0.36 | 77 | 1009.5 |
| 20260506171604 | 16 | 202 | 0.0 | 1.6 | 0.00 | 0.00 | 0.36 | 77 | 1009.5 |
| 20260506170604 | 16 | 186 | 0.0 | 1.6 | 0.00 | 0.00 | 0.36 | 75 | 1009.8 |
| 20260506165604 | 16 | 115 | 0.0 | 1.6 | 0.00 | 0.00 | 0.36 | 75 | 1009.8 |
| 20260506164604 | 17 | 197 | 3.2 | 3.2 | 0.00 | 0.00 | 0.36 | 71 | 1009.8 |
| 20260506163604 | 17 | 178 | 1.6 | 1.6 | 0.00 | 0.00 | 0.36 | 66 | 1009.5 |
| 20260506162604 | 17 | 32 | 1.6 | 3.2 | 0.00 | 0.00 | 0.36 | 65 | 1009.5 |
| 20260506160604 | 18 | 194 | 0.0 | 1.6 | 0.00 | 0.00 | 0.36 | 64 | 1009.5 |
| 20260506155604 | 18 | 161 | 3.2 | 3.2 | 0.00 | 0.00 | 0.36 | 64 | 1009.5 |
| 20260506154604 | 18 | 158 | 3.2 | 4.8 | 0.00 | 0.00 | 0.36 | 63 | 1009.5 |
| 20260506153604 | 18 | 204 | 1.6 | 3.2 | 0.00 | 0.00 | 0.36 | 63 | 1009.5 |
| 20260506152604 | 18 | 66 | 4.8 | 6.4 | 0.00 | 0.00 | 0.36 | 63 | 1009.5 |
| 20260506151604 | 18 | 200 | 3.2 | 3.2 | 0.00 | 0.00 | 0.36 | 63 | 1009.5 |
| 20260506150604 | 18 | 353 | 8.0 | 11.3 | 0.00 | 0.00 | 0.36 | 63 | 1009.5 |
| 20260506145604 | 18 | 12 | 4.8 | 4.8 | 0.00 | 0.00 | 0.36 | 64 | 1009.8 |
| 20260506144604 | 19 | 25 | 4.8 | 6.4 | 0.00 | 0.00 | 0.36 | 63 | 1009.5 |
| 20260506143604 | 20 | 72 | 3.2 | 3.2 | 0.00 | 0.00 | 0.36 | 63 | 1009.8 |
| 20260506142604 | 20 | 207 | 4.8 | 4.8 | 0.00 | 0.00 | 0.36 | 64 | 1009.8 |
| 20260506141604 | 19 | 358 | 4.8 | 9.7 | 0.00 | 0.00 | 0.36 | 64 | 1009.8 |
| 20260506140604 | 20 | 170 | 1.6 | 4.8 | 0.00 | 0.00 | 0.36 | 64 | 1009.8 |
| 20260506135604 | 20 | 185 | 3.2 | 4.8 | 0.00 | 0.00 | 0.36 | 65 | 1009.8 |
| 20260506134604 | 20 | 152 | 4.8 | 4.8 | 0.00 | 0.00 | 0.36 | 64 | 1009.8 |
| 20260506133604 | 20 | 79 | 3.2 | 4.8 | 0.00 | 0.00 | 0.36 | 66 | 1009.8 |
| 20260506132604 | 19 | 222 | 3.2 | 4.8 | 0.00 | 0.00 | 0.36 | 69 | 1010.2 |
| 20260506131604 | 19 | 218 | 3.2 | 9.7 | 0.00 | 0.00 | 0.36 | 71 | 1010.2 |
| 20260506130604 | 20 | 290 | 4.8 | 4.8 | 0.00 | 0.00 | 0.36 | 67 | 1010.2 |
| 20260506125604 | 19 | 148 | 1.6 | 4.8 | 0.00 | 0.00 | 0.36 | 70 | 1010.2 |
| 20260506124604 | 20 | 56 | 3.2 | 3.2 | 0.00 | 0.00 | 0.36 | 68 | 1010.2 |
| 20260506123604 | 20 | 301 | 4.8 | 4.8 | 0.00 | 0.00 | 0.36 | 65 | 1010.2 |
| 20260506122604 | 20 | 186 | 3.2 | 3.2 | 0.00 | 0.00 | 0.36 | 67 | 1010.2 |
| 20260506121604 | 20 | 348 | 3.2 | 4.8 | 0.00 | 0.00 | 0.36 | 64 | 1010.2 |
| 20260506120604 | 19 | 227 | 4.8 | 8.0 | 0.00 | 0.00 | 0.36 | 69 | 1010.2 |
| 20260506115604 | 18 | 33 | 1.6 | 6.4 | 0.00 | 0.00 | 0.36 | 72 | 1010.2 |
| 20260506114604 | 19 | 71 | 1.6 | 1.6 | 0.00 | 0.00 | 0.36 | 72 | 1010.2 |
| 20260506113604 | 20 | 259 | 4.8 | 4.8 | 0.00 | 0.00 | 0.36 | 68 | 1010.2 |
| 20260506112604 | 19 | 9 | 4.8 | 4.8 | 0.00 | 0.00 | 0.36 | 67 | 1010.2 |
| 20260506111604 | 20 | 7 | 4.8 | 4.8 | 0.00 | 0.00 | 0.36 | 66 | 1010.2 |
| 20260506110604 | 20 | 107 | 4.8 | 8.0 | 0.00 | 0.00 | 0.36 | 65 | 1010.2 |
| 20260506105604 | 20 | 313 | 3.2 | 3.2 | 0.00 | 0.00 | 0.36 | 64 | 1010.2 |
| 20260506104604 | 20 | 34 | 3.2 | 3.2 | 0.00 | 0.00 | 0.36 | 65 | 1010.2 |
| 20260506103604 | 20 | 217 | 3.2 | 4.8 | 0.00 | 0.00 | 0.36 | 65 | 1010.2 |
| 20260506102604 | 20 | 245 | 1.6 | 3.2 | 0.00 | 0.00 | 0.36 | 68 | 1010.2 |
| 20260506101604 | 20 | 270 | 3.2 | 3.2 | 0.00 | 0.00 | 0.36 | 65 | 1009.8 |
| 20260506100604 | 20 | 357 | 3.2 | 3.2 | 0.00 | 0.00 | 0.36 | 63 | 1010.2 |
| 20260506095604 | 20 | 291 | 1.6 | 1.6 | 0.00 | 0.00 | 0.36 | 63 | 1009.8 |
| 20260506094604 | 20 | 198 | 3.2 | 4.8 | 0.00 | 0.00 | 0.36 | 63 | 1009.8 |
| 20260506093604 | 20 | 199 | 1.6 | 1.6 | 0.00 | 0.00 | 0.36 | 62 | 1009.8 |
| 20260506092604 | 20 | 321 | 4.8 | 4.8 | 0.00 | 0.00 | 0.36 | 63 | 1010.2 |
| 20260506091604 | 20 | 132 | 1.6 | 1.6 | 0.00 | 0.00 | 0.36 | 63 | 1010.2 |
| 20260506090607 | 20 | 154 | 1.6 | 4.8 | 0.00 | 0.00 | 0.36 | 62 | 1010.2 |
| 20260506085603 | 19 | 144 | 4.8 | 4.8 | 0.00 | 0.00 | 0.36 | 66 | 1010.2 |
| 20260506084604 | 19 | 78 | 6.4 | 6.4 | 0.00 | 0.00 | 0.36 | 63 | 1009.8 |
| 20260506083603 | 19 | 165 | 1.6 | 4.8 | 0.00 | 0.00 | 0.36 | 68 | 1009.8 |
| 20260506082603 | 19 | 193 | 0.0 | 1.6 | 0.00 | 0.00 | 0.36 | 68 | 1009.8 |
| 20260506081603 | 18 | 185 | 0.0 | 1.6 | 0.00 | 0.00 | 0.36 | 70 | 1009.8 |
| 20260506080603 | 17 | 90 | 3.2 | 3.2 | 0.00 | 0.00 | 0.36 | 68 | 1009.8 |
| 20260506072557 | 16 | 193 | 1.6 | 1.6 | 0.00 | 0.00 | 0.36 | 81 | 1009.8 |
| 20260506071557 | 16 | 188 | 1.6 | 1.6 | 0.00 | 0.00 | 0.36 | 79 | 1009.8 |
| 20260506070557 | 17 | 124 | 0.0 | 1.6 | 0.00 | 0.00 | 0.36 | 75 | 1009.8 |
| 20260506061600 | 16 | 205 | 0.0 | 1.6 | 0.00 | 0.00 | 0.36 | 78 | 1009.5 |
| 20260506060557 | 15 | 193 | 1.6 | 1.6 | 0.00 | 0.00 | 0.36 | 84 | 1009.5 |
| 20260506050557 | 11 | 213 | 0.0 | 1.6 | 0.00 | 0.00 | 0.36 | 96 | 1009.1 |
| 20260506044556 | 11 | 209 | 0.0 | 1.6 | 0.00 | 0.00 | 0.36 | 96 | 1008.8 |
| 20260506043557 | 11 | 225 | 0.0 | 1.6 | 0.00 | 0.00 | 0.36 | 93 | 1009.1 |
| 20260506042556 | 11 | 229 | 3.2 | 3.2 | 0.00 | 0.00 | 0.36 | 97 | 1009.1 |
| 20260506041556 | 11 | 204 | 0.0 | 0.0 | 0.00 | 0.00 | 0.36 | 96 | 1009.1 |
| 20260506040557 | 11 | 244 | 3.2 | 3.2 | 0.00 | 0.00 | 0.36 | 95 | 1009.1 |
| 20260506035556 | 11 | 226 | 1.6 | 3.2 | 0.00 | 0.00 | 0.36 | 95 | 1009.1 |
| 20260506034557 | 12 | 237 | 1.6 | 1.6 | 0.00 | 0.00 | 0.30 | 91 | 1009.8 |
| 20260506033556 | 12 | 337 | 3.2 | 4.8 | 0.00 | 0.00 | 0.23 | 89 | 1009.8 |
| 20260506032556 | 12 | 224 | 3.2 | 3.2 | 0.00 | 0.00 | 0.10 | 90 | 1009.8 |
| 20260506031556 | 12 | 15 | 4.8 | 8.0 | 0.00 | 0.00 | 0.05 | 87 | 1009.8 |
| 20260506030556 | 12 | 181 | 1.6 | 4.8 | 0.00 | 0.00 | 0.03 | 89 | 1009.1 |
| 20260506025556 | 12 | 240 | 1.6 | 1.6 | 0.00 | 0.00 | 0.03 | 92 | 1009.1 |
| 20260506024556 | 12 | 215 | 0.0 | 1.6 | 0.00 | 0.00 | 0.03 | 91 | 1009.5 |
| 20260506023556 | 12 | 211 | 0.0 | 1.6 | 0.00 | 0.00 | 0.03 | 92 | 1009.5 |
| 20260506022557 | 12 | 212 | 0.0 | 1.6 | 0.00 | 0.00 | 0.03 | 92 | 1009.5 |
| 20260506021556 | 12 | 225 | 1.6 | 1.6 | 0.00 | 0.00 | 0.03 | 93 | 1009.8 |
| 20260506020556 | 12 | 258 | 3.2 | 3.2 | 0.00 | 0.00 | 0.03 | 90 | 1009.5 |
| 20260506015556 | 12 | 204 | 0.0 | 1.6 | 0.00 | 0.00 | 0.03 | 93 | 1010.2 |
| 20260506014556 | 12 | 266 | 1.6 | 4.8 | 0.00 | 0.00 | 0.03 | 91 | 1010.2 |
| 20260506013556 | 12 | 275 | 3.2 | 4.8 | 0.00 | 0.00 | 0.03 | 94 | 1010.2 |
| 20260506012556 | 12 | 199 | 0.0 | 0.0 | 0.00 | 0.00 | 0.03 | 98 | 1010.2 |
| 20260506011556 | 12 | 206 | 0.0 | 0.0 | 0.00 | 0.00 | 0.03 | 98 | 1010.2 |
| 20260506010556 | 12 | 221 | 0.0 | 1.6 | 0.00 | 0.00 | 0.03 | 97 | 1010.2 |
| 20260506005556 | 12 | 206 | 0.0 | 1.6 | 0.00 | 0.00 | 0.03 | 97 | 1009.8 |
| 20260506004556 | 12 | 201 | 0.0 | 1.6 | 0.00 | 0.00 | 0.03 | 96 | 1009.8 |
| 20260506003556 | 12 | 230 | 1.6 | 4.8 | 0.00 | 0.00 | 0.03 | 97 | 1009.8 |
| 20260506002556 | 12 | 215 | 0.0 | 1.6 | 0.00 | 0.00 | 0.03 | 99 | 1010.5 |
| 20260506001556 | 12 | 270 | 1.6 | 1.6 | 0.00 | 0.00 | 0.03 | 99 | 1010.8 |
| 20260506000556 | 12 | 354 | 1.6 | 1.6 | 0.00 | 0.00 | 0.00 | 99 | 1010.8 |
| 20260505235556 | 12 | 242 | 1.6 | 1.6 | 0.00 | 0.00 | 0.00 | 99 | 1011.2 |
| 20260505234556 | 12 | 205 | 0.0 | 0.0 | 0.00 | 0.00 | 0.00 | 99 | 1011.9 |
| 20260505233556 | 12 | 213 | 0.0 | 0.0 | 0.00 | 0.00 | 0.00 | 98 | 1011.9 |
| 20260505232556 | 12 | 208 | 1.6 | 1.6 | 0.00 | 0.00 | 0.00 | 97 | 1011.9 |
| 20260505231556 | 13 | 205 | 4.8 | 4.8 | 0.00 | 0.00 | 0.00 | 98 | 1012.2 |
| 20260505230556 | 12 | 232 | 1.6 | 1.6 | 0.00 | 0.00 | 0.00 | 97 | 1011.9 |
| 20260505225556 | 13 | 224 | 1.6 | 1.6 | 0.00 | 0.00 | 0.20 | 95 | 1012.2 |
| 20260505224556 | 13 | 306 | 4.8 | 6.4 | 0.00 | 0.00 | 0.15 | 94 | 1011.9 |
| 20260505223556 | 13 | 230 | 1.6 | 1.6 | 0.00 | 0.00 | 0.08 | 92 | 1011.9 |
| 20260505222556 | 13 | 347 | 1.6 | 3.2 | 0.00 | 0.00 | 0.03 | 91 | 1011.9 |
| 20260505221556 | 13 | 268 | 3.2 | 4.8 | 0.00 | 0.00 | 0.00 | 91 | 1012.2 |
| 20260505220556 | 13 | 197 | 0.0 | 1.6 | 0.00 | 0.00 | 0.00 | 90 | 1012.2 |